This is the latest recevied weather packets stored in our database for station/object DL1AIE-13. If no packets are shown the sender has not sent any weather packets the latest 10 day(s).
| Time | Temp. | Humidity | Pressure | Rain* | Wind** | Luminosity | Snow |
|---|---|---|---|---|---|---|---|
| 1777894648 | 21.11° C | 51% | 1013.7 hPa | 0 mm | - | - | - |
| 1777894044 | 21.11° C | 51% | 1013.5 hPa | 0 mm | - | - | - |
| 1777893441 | 21.11° C | 51% | 1013.6 hPa | 0 mm | - | - | - |
| 1777892837 | 20.56° C | 51% | 1013.9 hPa | 0 mm | - | - | - |
| 1777892258 | 21.11° C | 50% | 1014 hPa | 0 mm | - | - | - |
| 1777891654 | 21.67° C | 49% | 1014.2 hPa | 0 mm | - | - | - |
| 1777891047 | 20.56° C | 51% | 1014.3 hPa | 0 mm | - | - | - |
| 1777890443 | 20.56° C | 51% | 1014.4 hPa | 0 mm | - | - | - |
| 1777889839 | 20° C | 51% | 1014.6 hPa | 0 mm | - | - | - |
| 1777889255 | 21.11° C | 50% | 1014.5 hPa | 0 mm | - | - | - |
| 1777888649 | 20.56° C | 53% | 1014.5 hPa | 0 mm | - | - | - |
| 1777888047 | 20° C | 51% | 1014.7 hPa | 0 mm | - | - | - |
| 1777887443 | 20° C | 51% | 1014.7 hPa | 0 mm | - | - | - |
| 1777886839 | 19.44° C | 50% | 1014.8 hPa | 0 mm | - | - | - |
| 1777886255 | 18.89° C | 52% | 1014.8 hPa | 0 mm | - | - | - |
| 1777885652 | 19.44° C | 54% | 1014.8 hPa | 0 mm | - | - | - |
| 1777885048 | 18.89° C | 53% | 1014.9 hPa | 0 mm | - | - | - |
| 1777884447 | 18.33° C | 53% | 1014.8 hPa | 0 mm | - | - | - |
| 1777883841 | 18.89° C | 52% | 1014.9 hPa | 0 mm | - | - | - |
| 1777883237 | 17.78° C | 55% | 1014.9 hPa | 0 mm | - | - | - |
| 1777882653 | 18.33° C | 53% | 1014.8 hPa | 0 mm | - | - | - |
| 1777882050 | 17.78° C | 56% | 1014.8 hPa | 0 mm | - | - | - |
| 1777881446 | 17.22° C | 55% | 1014.9 hPa | 0 mm | - | - | - |
| 1777880842 | 17.22° C | 56% | 1014.8 hPa | 0 mm | - | - | - |
| 1777880239 | 17.22° C | 56% | 1014.9 hPa | 0 mm | - | - | - |
* Rain latest hour (hover to see other rain measurements)
** Current wind speed in m/s (hover to see current wind gust speed)